San Bernardino, CA

9:28 PM PST on December 13, 2019 (GMT -0800)
San Bernardino International

Weather History for KSBD - November, 2019

Change the Weather History Date:

Tuesday, November 12, 2019

  Actual Average Record
Temperature  
Mean Temperature 69 °F -  
Max Temperature 89 °F 74 °F 84 °F (2016)
Min Temperature 49 °F 45 °F 35 °F (2012)
Cooling Degree Days 4    
Growing Degree Days 19 (Base 50)    
Moisture  
Dew Point 32 °F    
Average Humidity 36    
Maximum Humidity 64    
Minimum Humidity 10    
Precipitation  
Precipitation 0.00 in - - ()
Sea Level Pressure  
Sea Level Pressure 30.05 in    
Wind  
Wind Speed 2 mph ()    
Max Wind Speed 8 mph    
Max Gust Speed -    
Visibility 10.0 miles    
Events      
Averages and records for this station are not official NWS values.
T = Trace of Precipitation, MM = Missing Value Source: Averaged Metar Reports

Daily Weather History Graph

Daily Weather History Graph

Search for Another Location

Airport or City:

Astronomy

Nov. 12, 2019 Rise Set
Actual Time 6:18 AM PST 4:47 PM PST
Civil Twilight 5:52 AM PST 5:13 PM PST
Nautical Twilight 5:22 AM PST 5:43 PM PST
Astronomical Twilight 4:52 AM PST 6:13 PM PST
Moon 5:15 PM PST (11/12) 6:16 AM PST (11/12)
Length of Visible Light 11h 21m
Length of Day
10h 28m
Full, 100% of the Moon is Illuminated
Nov 12
Full
Nov 19
Last Quarter
Nov 26
New
Dec 3
First Quarter
Dec 11
Full

Hourly Weather History & Observations

Time (PST) Temp. Dew Point Humidity Pressure Visibility Wind Dir Wind Speed Gust Speed Precip Events Conditions
12:02 AM 54.9 °F 37.2 °F 51% 30.07 in 10.0 mi Calm Calm - N/A   Clear
12:20 AM 54.0 °F 35.2 °F 49% 30.07 in 10.0 mi Calm Calm - N/A   Clear
12:40 AM 54.7 °F 36.0 °F 49% 30.07 in 10.0 mi Calm Calm - N/A   Clear
1:00 AM 55.4 °F 36.9 °F 50% 30.07 in 10.0 mi Calm Calm - N/A   Clear
1:24 AM 52.9 °F 36.1 °F 53% 30.07 in 10.0 mi Calm Calm - N/A   Clear
1:42 AM 52.3 °F 35.1 °F 52% 30.07 in 10.0 mi ENE 3.5 mph - N/A   Clear
2:00 AM 52.0 °F 35.4 °F 53% 30.07 in 10.0 mi Calm Calm - N/A   Clear
2:20 AM 53.4 °F 35.6 °F 51% 30.07 in 10.0 mi Calm Calm - N/A   Clear
2:40 AM 52.9 °F 34.2 °F 49% 30.06 in 10.0 mi Calm Calm - N/A   Clear
3:04 AM 49.3 °F 32.9 °F 53% 30.05 in 10.0 mi ENE 5.8 mph - N/A   Clear
3:22 AM 49.8 °F 36.9 °F 61% 30.05 in 10.0 mi ENE 4.6 mph - N/A   Clear
3:40 AM 50.4 °F 38.5 °F 64% 30.05 in 10.0 mi East 4.6 mph - N/A   Clear
4:00 AM 50.4 °F 36.9 °F 60% 30.05 in 10.0 mi Calm Calm - N/A   Clear
4:20 AM 51.8 °F 36.7 °F 56% 30.05 in 10.0 mi ENE 4.6 mph - N/A   Clear
4:43 AM 50.0 °F 34.0 °F 54% 30.05 in 10.0 mi East 3.5 mph - N/A   Clear
5:02 AM 49.6 °F 32.7 °F 52% 30.06 in 10.0 mi East 3.5 mph - N/A   Clear
5:20 AM 51.6 °F 32.2 °F 47% 30.06 in 10.0 mi ENE 4.6 mph - N/A   Clear
5:40 AM 50.7 °F 32.7 °F 50% 30.06 in 10.0 mi Calm Calm - N/A   Clear
6:50 AM 50.0 °F 28.4 °F 43% 30.08 in 10.0 mi ENE 6.9 mph - N/A   Clear
7:50 AM 64.4 °F 28.4 °F 26% 30.09 in 10.0 mi Calm Calm - N/A   Clear
8:50 AM 71.6 °F 28.4 °F 20% 30.09 in 10.0 mi Calm Calm - N/A   Clear
9:50 AM 78.8 °F 28.4 °F 16% 30.09 in 10.0 mi Calm Calm - N/A   Clear
10:50 AM 82.4 °F 28.4 °F 14% 30.06 in 10.0 mi Calm Calm - N/A   Clear
11:49 AM 86.0 °F 24.8 °F 11% 30.04 in 10.0 mi Calm Calm - N/A   Clear
11:55 AM 87.8 °F 24.8 °F 10% 30.02 in 10.0 mi Calm Calm - N/A   Clear
12:50 PM 87.8 °F 28.4 °F 12% 30.01 in 10.0 mi West 6.9 mph - N/A   Clear
1:45 PM 87.8 °F 26.6 °F 11% 29.99 in 10.0 mi WSW 6.9 mph - N/A   Clear
2:50 PM 89.6 °F 24.8 °F 10% 29.98 in 10.0 mi WSW 6.9 mph - N/A   Clear
3:50 PM 86.0 °F 26.6 °F 12% 29.98 in 10.0 mi West 6.9 mph - N/A   Clear
4:48 PM 80.6 °F 28.4 °F 15% 29.99 in 10.0 mi WSW 8.1 mph - N/A   Clear
7:00 PM 80.6 °F 32.0 °F 17% 30.03 in 10.0 mi Calm Calm - N/A   Clear
7:55 PM 66.2 °F 32.0 °F 28% 30.03 in 10.0 mi WSW 6.9 mph - N/A   Clear
8:55 PM 62.6 °F 33.8 °F 34% 30.03 in 10.0 mi Calm Calm - N/A   Clear
9:41 PM 61.5 °F 31.5 °F 32% 30.04 in 10.0 mi SSW 3.5 mph - N/A   Clear
10:00 PM 61.7 °F 29.8 °F 30% 30.04 in 10.0 mi Calm Calm - N/A   Clear
10:20 PM 61.5 °F 29.8 °F 30% 30.04 in 10.0 mi SSE 4.6 mph - N/A   Clear
10:44 PM 59.2 °F 29.5 °F 32% 30.04 in 10.0 mi Calm Calm - N/A   Clear
11:02 PM 59.9 °F 30.7 °F 33% 30.04 in 10.0 mi Calm Calm - N/A   Clear
11:21 PM 59.5 °F 30.6 °F 33% 30.04 in 10.0 mi Calm Calm - N/A   Clear
11:40 PM 57.4 °F 30.7 °F 36% 30.04 in 10.0 mi Calm Calm - N/A   Clear